1532577600.81,51249,18.94,74030.8,6.37,5.77,5.77,0,*74
1532577602.02,51250,18.94,74034.3,6.37,5.77,5.81,0,*75
1532577603.25,51251,18.94,74032.0,6.37,5.89,5.77,0,*7C
1532577604.47,51252,18.94,74034.3,6.37,5.81,5.89,0,*76
1532577605.7,51253,18.94,74030.8,6.37,5.89,5.93,0,*74
1532577606.91,51254,18.94,74030.8,6.39,5.95,5.95,0,*76
1532577608.17,51255,18.94,74030.3,6.39,5.93,5.93,0,*77
1532577609.4,51256,18.94,74032.8,6.39,5.93,5.95,0,*72
1532577610.63,51257,18.94,74032.0,6.37,5.93,5.93,0,*7B
1532577611.84,51258,18.94,74034.8,6.39,5.95,5.95,0,*7A
1532577613.05,51259,18.94,74030.8,6.39,5.95,5.95,0,*7B
1532577614.31,51260,18.94,74030.3,6.39,5.93,5.93,0,*71
1532577615.53,51261,18.94,74030.0,6.37,5.89,5.93,0,*75
1532577616.72,51262,18.94,74036.0,6.41,5.95,5.95,0,*7C
1532577617.95,51263,18.94,74032.8,6.39,5.93,5.95,0,*74
1532577619.14,51264,18.94,74032.5,6.41,5.99,5.99,0,*7A
1532577620.32,51265,18.94,74028.0,6.41,5.99,5.99,0,*7B
1532577621.51,51266,18.94,74028.8,6.41,5.95,5.99,0,*74
1532577622.69,51267,18.94,74026.5,6.41,5.99,5.99,0,*79
1532577623.87,51268,18.94,74030.3,6.41,5.95,6.07,0,*7E
1532577625.05,51269,18.94,74024.3,6.41,5.95,5.99,0,*7B
1532577626.31,51270,18.94,74026.8,6.39,5.85,5.93,0,*77
1532577627.49,51271,18.94,74030.3,6.41,5.99,5.95,0,*72
1532577628.67,51272,18.94,74028.0,6.41,5.95,5.95,0,*7D
1532577629.85,51273,18.94,74036.3,6.41,5.95,5.99,0,*70
1532577631.04,51274,18.94,74034.8,6.41,5.99,5.99,0,*7B
1532577632.25,51275,18.94,74034.3,6.43,5.99,5.99,0,*78
1532577633.43,51276,18.94,74034.8,6.41,5.99,6.07,0,*7D
1532577634.63,51277,18.94,74032.3,6.43,5.95,5.95,0,*7A
1532577635.81,51278,18.94,74032.3,6.45,5.95,5.95,0,*73
1532577636.99,51279,18.94,74032.8,6.41,5.95,5.95,0,*76
1532577638.2,51280,18.94,74034.0,6.43,5.95,5.95,0,*72
1532577639.4,51281,18.94,74036.5,6.43,5.95,5.95,0,*73
1532577640.59,51282,18.94,74036.0,6.41,5.99,5.99,0,*72
1532577641.8,51283,18.94,74032.5,6.43,5.95,5.95,0,*71
1532577642.98,51284,18.94,74034.3,6.41,5.95,5.95,0,*74
1532577644.16,51285,18.94,74036.5,6.41,5.95,5.99,0,*79
1532577645.34,51286,18.94,74038.3,6.41,5.99,5.95,0,*7A
1532577646.6,51287,18.94,74034.8,6.43,5.89,5.89,0,*75
1532577647.83,51288,18.94,74040.0,6.41,5.85,5.89,0,*74
1532577649.06,51289,18.94,74034.5,6.41,5.89,5.85,0,*75
1532577650.27,51290,18.94,74036.8,6.45,5.93,5.99,0,*7F
1532577651.49,51291,18.94,74036.0,6.41,5.73,5.77,0,*74
1532577652.73,51292,18.94,74034.3,6.43,5.77,5.77,0,*71
1532577653.94,51293,18.94,74032.8,6.43,5.95,5.95,0,*70
1532577655.18,51294,18.94,74028.8,6.43,5.85,5.77,0,*7A
1532577656.4,51295,18.94,74030.0,6.41,5.77,5.77,0,*74
1532577657.63,51296,18.94,74030.8,6.41,5.85,5.85,0,*77
1532577658.86,51297,18.94,74032.0,6.43,5.99,5.89,0,*75
1532577660.07,51298,18.94,74034.3,6.43,5.95,5.99,0,*77
1532577661.27,51299,18.94,74036.5,6.41,5.95,5.89,0,*75
1532577662.48,51300,18.94,74034.0,6.43,5.95,5.95,0,*7B
1532577663.71,51301,18.94,74034.5,6.41,5.89,5.89,0,*78
1532577664.89,51302,18.94,74034.0,6.41,5.95,5.99,0,*77
1532577666.08,51303,18.88,74030.3,6.41,5.99,5.95,0,*76
1532577667.33,51304,18.94,74034.0,6.43,5.85,5.85,0,*7F
1532577668.54,51305,18.88,74032.3,6.41,5.77,5.77,0,*7C
1532577669.8,51306,18.94,74034.5,6.43,5.89,5.85,0,*71
1532577671.03,51307,18.94,74032.5,6.41,5.85,5.89,0,*72
1532577672.28,51308,18.94,74034.0,6.43,5.85,5.89,0,*7F
1532577673.5,51309,18.94,74034.3,6.41,5.85,5.85,0,*70
1532577674.73,51310,18.88,74028.8,6.41,5.85,5.89,0,*74
1532577675.96,51311,18.94,74032.5,6.41,5.85,5.85,0,*79
1532577677.17,51312,18.94,74036.5,6.41,5.89,5.99,0,*7B
1532577678.37,51313,18.94,74038.5,6.41,5.95,5.89,0,*76
1532577679.6,51314,18.94,74032.0,6.41,5.85,5.85,0,*7C
1532577680.8,51315,18.94,74034.3,6.41,5.95,5.89,0,*70
1532577681.99,51316,18.94,74034.8,6.41,5.95,5.99,0,*72
1532577683.2,51317,18.94,74038.5,6.43,5.95,5.95,0,*7D
1532577684.38,51318,18.94,74036.8,6.41,5.95,5.95,0,*70
1532577685.56,51319,18.88,74034.0,6.41,5.99,5.95,0,*7D
1532577686.74,51320,18.94,74038.3,6.41,5.95,5.95,0,*7B
1532577687.95,51321,18.94,74038.0,6.43,5.95,5.99,0,*74
1532577689.16,51322,18.94,74036.3,6.43,5.95,5.99,0,*77
1532577690.34,51323,18.94,74034.5,6.41,5.99,5.95,0,*74
1532577691.55,51324,18.94,74036.8,6.43,5.95,5.99,0,*71
1532577692.78,51325,18.94,74034.5,6.45,5.89,5.93,0,*71
1532577694.01,51326,18.94,74038.0,6.43,5.89,5.95,0,*72
1532577695.26,51327,18.94,74032.5,6.43,5.89,5.89,0,*7E
1532577696.5,51328,18.94,74032.0,6.43,5.89,5.95,0,*7C
1532577697.7,51329,18.94,74034.5,6.43,5.95,5.95,0,*70
1532577698.93,51330,18.94,74034.8,6.41,5.85,5.85,0,*7A
1532577700.17,51331,18.94,74038.5,6.43,5.77,5.85,0,*74
1532577701.43,51332,18.94,74034.0,6.43,5.89,5.85,0,*76
1532577702.66,51333,18.94,74034.3,6.41,5.89,5.85,0,*75
1532577703.89,51334,18.94,74032.8,6.41,5.73,5.73,0,*7E
1532577705.13,51335,18.94,74038.5,6.43,5.77,5.85,0,*70
1532577706.36,51336,18.94,74032.3,6.41,5.85,5.85,0,*7C
1532577707.59,51337,18.94,74034.3,6.43,5.89,5.99,0,*7E
1532577708.8,51338,18.94,74034.5,6.41,5.85,5.95,0,*73
1532577710.03,51339,18.94,74032.3,6.43,5.89,5.95,0,*7C
1532577711.26,51340,18.94,74036.5,6.43,5.89,5.95,0,*72
1532577712.51,51341,18.94,74036.3,6.43,5.85,5.89,0,*72
1532577713.77,51342,18.94,74038.5,6.43,5.89,5.89,0,*7D
1532577715.0,51343,18.94,74038.8,6.43,5.95,5.89,0,*71
1532577716.25,51344,18.94,74036.0,6.43,5.89,5.89,0,*7B
1532577717.48,51345,18.94,74034.5,6.41,5.89,5.85,0,*74
1532577718.71,51346,18.94,74038.3,6.41,5.89,5.89,0,*7B
1532577719.97,51347,18.88,74036.3,6.43,5.89,5.89,0,*78
1532577721.22,51348,18.94,74038.5,6.43,5.89,5.89,0,*77
1532577722.4,51349,18.94,74038.3,6.45,5.95,5.95,0,*70
1532577723.63,51350,18.94,74040.0,6.43,5.85,5.99,0,*73
1532577724.86,51351,18.94,74042.0,6.47,5.99,5.93,0,*71
1532577726.11,51352,18.88,74036.5,6.43,5.85,5.85,0,*7C
1532577727.37,51353,18.88,74040.5,6.43,5.89,5.89,0,*7D
1532577728.55,51354,18.94,74042.8,6.41,5.95,5.99,0,*74
1532577729.79,51355,18.94,74040.0,6.43,5.89,5.95,0,*76
1532577730.97,51356,18.94,74042.8,6.41,5.95,5.95,0,*7A
1532577732.2,51357,18.94,74042.0,6.43,5.95,5.89,0,*74
1532577733.42,51358,18.94,74040.3,6.45,5.89,5.89,0,*70
1532577734.65,51359,18.94,74040.8,6.41,5.89,5.89,0,*75
1532577735.86,51360,18.94,74036.3,6.43,5.95,5.95,0,*7D
1532577737.07,51361,18.94,74038.0,6.43,5.99,5.99,0,*7C
1532577738.27,51362,18.94,74040.0,6.43,5.99,6.07,0,*7B
1532577739.47,51363,18.94,74042.3,6.43,5.99,6.07,0,*7A
1532577740.68,51364,18.94,74038.0,6.43,5.99,5.99,0,*79
1532577741.86,51365,18.94,74036.8,6.45,5.99,5.99,0,*7E
1532577743.07,51366,18.94,74036.8,6.43,5.95,5.95,0,*7B
1532577744.32,51367,18.94,74034.5,6.43,5.85,5.85,0,*7A
1532577745.57,51368,18.94,74032.0,6.43,5.77,5.89,0,*74
1532577746.82,51369,18.94,74034.0,6.43,5.89,5.77,0,*75
1532577748.05,51370,18.94,74032.5,6.43,5.95,5.89,0,*71
1532577749.24,51371,18.94,74030.3,6.45,6.03,6.03,0,*7B
1532577750.42,51372,18.94,74034.3,6.45,6.03,6.03,0,*78
1532577751.61,51373,18.94,74034.5,6.45,6.03,5.99,0,*79
1532577752.79,51374,18.94,74042.8,6.45,5.99,6.03,0,*7E
1532577754.05,51375,18.94,74046.5,6.43,5.89,5.85,0,*75
1532577755.3,51376,18.94,74040.8,6.43,5.73,5.77,0,*7E
1532577756.54,51377,18.94,74040.5,6.43,5.77,5.77,0,*7B
1532577757.79,51378,18.94,74032.5,6.43,5.89,5.77,0,*75
1532577759.02,51379,18.94,74032.8,6.43,5.95,5.89,0,*78
1532577760.24,51380,18.94,74032.3,6.41,5.85,5.89,0,*7D
1532577761.49,51381,18.94,74038.0,6.43,5.77,5.89,0,*73
1532577762.72,51382,18.94,74032.8,6.41,5.85,5.85,0,*73
1532577763.97,51383,18.88,74032.0,6.43,5.85,5.89,0,*7C
1532577765.22,51384,18.94,74036.3,6.43,5.85,5.89,0,*7B
1532577766.47,51385,18.94,74040.8,6.43,5.85,5.85,0,*76
1532577767.71,51386,18.88,74038.8,6.43,5.77,5.77,0,*75
1532577768.96,51387,18.94,74036.8,6.43,5.85,5.89,0,*78
1532577770.21,51388,18.94,74034.3,6.43,5.77,5.85,0,*76
1532577771.42,51389,18.94,74036.3,6.45,5.77,5.81,0,*75
1532577772.65,51390,18.94,74042.0,6.45,5.81,5.81,0,*74
1532577773.9,51391,18.94,74042.3,6.43,5.73,5.73,0,*73
1532577775.14,51392,18.94,74038.0,6.43,5.85,5.77,0,*7D
1532577776.39,51393,18.94,74036.5,6.43,5.73,5.73,0,*71
1532577777.64,51394,18.94,74034.3,6.43,5.73,5.77,0,*72
1532577778.88,51395,18.94,74036.5,6.43,5.77,5.85,0,*7A
1532577780.13,51396,18.94,74038.0,6.43,5.73,5.85,0,*7D
1532577781.36,51397,18.94,74036.8,6.41,5.85,5.89,0,*7B
1532577782.62,51398,18.94,74034.3,6.43,5.89,5.85,0,*76
1532577783.83,51399,18.94,74026.3,6.41,5.77,5.77,0,*79
1532577785.08,51400,18.94,74028.5,6.43,5.73,5.73,0,*7C
1532577786.3,51401,18.94,74032.5,6.41,5.77,5.77,0,*7F
1532577787.48,51402,18.94,74030.0,6.41,5.71,5.71,0,*7C
1532577788.68,51403,18.94,74028.8,6.43,5.71,5.71,0,*7F
1532577789.92,51404,18.94,74032.5,6.43,5.77,5.77,0,*78
1532577791.17,51405,18.94,74032.8,6.43,5.77,5.73,0,*7D
1532577792.38,51406,18.88,74032.0,6.41,5.77,5.77,0,*78
1532577793.6,51407,18.94,74034.3,6.41,5.77,5.77,0,*79
1532577794.82,51408,18.94,74036.0,6.41,5.77,5.85,0,*7B
1532577796.07,51409,18.88,74032.0,6.43,5.85,5.85,0,*75
1532577797.33,51410,18.94,74038.8,6.43,5.89,5.85,0,*71
1532577798.58,51411,18.94,74038.3,6.43,5.85,5.85,0,*7C
1532577799.81,51412,18.94,74038.8,6.41,5.89,5.85,0,*71
1532577801.04,51413,18.94,74038.3,6.41,5.89,5.89,0,*7C
1532577802.27,51414,18.94,74038.5,6.41,5.85,5.85,0,*7B
1532577803.5,51415,18.94,74038.8,6.41,5.85,5.85,0,*7A
1532577804.72,51416,18.94,74040.5,6.41,5.85,5.77,0,*74
1532577805.97,51417,18.94,74042.3,6.43,5.73,5.73,0,*7A
1532577807.15,51418,18.94,74038.0,6.41,5.71,5.71,0,*77
1532577808.33,51419,18.94,74036.5,6.41,5.63,5.71,0,*75
1532577809.51,51420,18.94,74036.0,6.41,5.71,5.71,0,*7C
1532577810.7,51421,18.94,74032.5,6.41,5.71,5.73,0,*7F
1532577811.93,51422,18.94,74024.5,6.43,5.71,5.73,0,*7E
1532577813.12,51423,18.94,74016.5,6.41,5.71,5.73,0,*7D
1532577814.32,51424,18.94,74020.5,6.41,5.71,5.73,0,*7A
1532577815.52,51425,18.94,74026.3,6.41,5.71,5.73,0,*7B
1532577816.72,51426,18.94,74024.0,6.39,5.49,5.49,0,*75
1532577817.94,51427,18.94,74024.8,6.39,5.55,5.49,0,*79
1532577819.15,51428,18.94,74024.5,6.39,5.67,5.59,0,*76
1532577820.37,51429,18.94,74034.8,6.39,5.67,5.67,0,*7A
1532577821.58,51430,18.94,74026.8,6.39,5.67,5.67,0,*72
1532577822.74,51431,18.94,74024.5,6.37,5.45,5.45,0,*7D
1532577823.99,51432,18.94,74028.0,6.39,5.55,5.55,0,*70
1532577825.19,51433,18.94,74032.5,6.37,5.55,5.63,0,*7A
1532577826.4,51434,18.94,74032.0,6.39,5.67,5.67,0,*76
1532577827.6,51435,18.94,74030.5,6.37,5.63,5.55,0,*7C
1532577828.81,51436,18.94,74028.3,6.39,5.67,5.67,0,*74
1532577830.02,51437,18.94,74030.5,6.39,5.71,5.71,0,*75
1532577831.25,51438,18.94,74030.8,6.39,5.73,5.71,0,*78
1532577832.48,51439,18.94,74028.8,6.39,5.73,5.71,0,*79
1532577833.68,51440,18.88,74024.8,6.39,5.71,5.71,0,*75
1532577834.93,51441,18.94,74030.5,6.39,5.73,5.73,0,*74
1532577836.15,51442,18.94,74034.0,6.37,5.73,5.77,0,*7D
1532577837.36,51443,18.94,74036.5,6.39,5.71,5.71,0,*76
1532577838.57,51444,18.94,74032.8,6.39,5.71,5.67,0,*76
1532577839.79,51445,18.94,74034.5,6.37,5.55,5.51,0,*7A
1532577840.96,51446,18.94,74036.8,6.37,5.63,5.63,0,*7D
1532577842.2,51447,18.94,74038.8,6.39,5.73,5.71,0,*70
1532577843.37,51448,18.94,74038.3,6.37,5.71,5.67,0,*74
1532577844.56,51449,18.94,74038.8,6.37,5.67,5.67,0,*72
1532577845.73,51450,18.94,74038.8,6.37,5.71,5.71,0,*7A
1532577846.99,51451,18.94,74038.3,6.39,5.81,5.81,0,*75
1532577848.24,51452,18.88,74036.5,6.39,5.81,5.85,0,*72
1532577849.45,51453,18.94,74038.8,6.37,5.77,5.77,0,*79
1532577850.68,51454,18.94,74036.0,6.37,5.81,5.81,0,*7E
1532577851.9,51455,18.94,74042.8,6.37,5.81,5.93,0,*7C
1532577853.11,51456,18.94,74038.3,6.39,5.95,5.95,0,*72
1532577854.32,51457,18.94,74042.5,6.39,5.95,5.95,0,*73
1532577855.57,51458,18.88,74034.8,6.39,5.81,5.85,0,*78
1532577856.82,51459,18.94,74032.0,6.39,5.81,5.73,0,*70
1532577858.08,51460,18.88,74024.5,6.39,5.85,5.85,0,*77
1532577859.3,51461,18.94,74026.8,6.37,5.77,5.81,0,*71
1532577860.51,51462,18.94,74024.5,6.41,5.77,5.77,0,*7A
1532577861.69,51463,18.94,74028.3,6.37,5.71,5.67,0,*7D
1532577862.9,51464,18.94,74024.8,6.39,5.71,5.71,0,*73
1532577864.15,51465,18.94,74026.5,6.39,5.73,5.73,0,*72
1532577865.34,51466,18.88,74024.3,6.37,5.71,5.77,0,*79
1532577866.6,51467,18.88,74028.5,6.39,5.85,5.81,0,*74
1532577867.83,51468,18.94,74032.8,6.39,5.81,5.71,0,*70
1532577869.08,51469,18.94,74030.8,6.39,5.81,5.73,0,*73
1532577870.33,51470,18.94,74036.3,6.39,5.85,5.81,0,*72
1532577871.59,51471,18.94,74034.3,6.39,5.81,5.81,0,*77
1532577872.81,51472,18.94,74028.5,6.41,5.85,5.85,0,*7B
1532577874.04,51473,18.94,74032.0,6.41,5.89,5.89,0,*7A
1532577875.3,51474,18.94,74028.8,6.39,5.85,5.85,0,*72
1532577876.56,51475,18.88,74030.3,6.39,5.93,5.93,0,*73
1532577877.81,51476,18.88,74028.8,6.39,5.93,5.93,0,*70
1532577879.04,51477,18.94,74032.8,6.37,5.81,5.89,0,*77
1532577880.3,51478,18.94,74034.3,6.39,5.93,5.93,0,*7E
1532577881.55,51479,18.88,74030.5,6.39,5.93,5.93,0,*7F
1532577882.78,51480,18.94,74034.5,6.39,5.95,5.93,0,*7F
1532577883.97,51481,18.94,74032.5,6.41,5.99,5.99,0,*77
1532577885.18,51482,18.88,74032.0,6.39,5.95,5.95,0,*7B
1532577886.36,51483,18.94,74032.0,6.41,5.99,5.95,0,*79
1532577887.54,51484,18.94,74032.8,6.41,5.95,5.95,0,*72
1532577888.75,51485,18.94,74036.3,6.39,5.95,5.95,0,*7C
1532577889.96,51486,18.88,74032.8,6.43,5.95,5.99,0,*7E
1532577891.14,51487,18.88,74032.0,6.41,5.95,5.99,0,*7D
1532577892.37,51488,18.94,74034.3,6.41,5.85,5.89,0,*72
1532577893.59,51489,18.94,74034.3,6.41,5.77,5.85,0,*72
1532577894.81,51490,18.94,74034.8,6.41,5.77,5.85,0,*7A
1532577896.04,51491,18.88,74032.5,6.41,5.85,5.85,0,*76
1532577897.26,51492,18.94,74032.5,6.41,5.77,5.77,0,*75
1532577898.51,51493,18.94,74034.5,6.43,5.89,5.89,0,*76
1532577899.74,51494,18.94,74030.8,6.41,5.85,5.85,0,*73
1532577900.99,51495,18.94,74028.5,6.43,5.85,5.89,0,*7C
1532577902.19,51496,18.88,74028.5,6.41,5.95,5.89,0,*7C
1532577903.38,51497,18.88,74030.3,6.41,5.95,5.99,0,*7C
1532577904.58,51498,18.88,74032.0,6.43,5.99,6.07,0,*79
1532577905.79,51499,18.94,74030.5,6.43,5.99,5.99,0,*7C
1532577907.0,51500,18.88,74030.3,6.43,5.95,5.99,0,*71
1532577908.2,51501,18.94,74028.3,6.43,5.95,5.95,0,*7C
1532577909.41,51502,18.94,74034.5,6.43,5.95,5.95,0,*7F
1532577910.64,51503,18.94,74034.8,6.41,5.85,5.85,0,*7C
1532577911.86,51504,18.88,74028.5,6.41,5.85,5.77,0,*76
1532577913.09,51505,18.94,74030.3,6.41,5.85,5.85,0,*7A
1532577914.31,51506,18.94,74030.5,6.41,5.85,5.85,0,*79
1532577915.54,51507,18.94,74030.8,6.41,5.85,5.89,0,*74
1532577916.77,51508,18.88,74032.0,6.41,5.85,5.85,0,*77
1532577917.99,51509,18.94,74032.5,6.41,5.85,5.89,0,*7A
1532577919.18,51510,18.94,74032.0,6.41,5.99,5.95,0,*72
1532577920.36,51511,18.94,74032.0,6.41,5.95,5.95,0,*7F
1532577921.58,51512,18.94,74028.3,6.41,5.85,5.85,0,*7C
1532577922.82,51513,18.94,74026.5,6.41,5.89,5.89,0,*7D
1532577924.04,51514,18.94,74026.3,6.41,5.85,5.85,0,*7A
1532577925.27,51515,18.94,74022.5,6.41,5.73,5.73,0,*7B
1532577926.47,51516,18.94,74020.3,6.43,5.71,5.63,0,*79
1532577927.69,51517,18.94,74024.5,6.41,5.73,5.73,0,*79
1532577928.91,51518,18.94,74020.3,6.41,5.77,5.77,0,*76
1532577930.13,51519,18.94,74016.5,6.41,5.73,5.77,0,*73
1532577931.36,51520,18.94,74012.5,6.41,5.85,5.77,0,*70
1532577932.57,51521,18.94,74014.0,6.41,5.77,5.73,0,*78
1532577933.76,51522,18.88,74016.0,6.37,5.67,5.67,0,*7E
1532577934.98,51523,18.94,74026.5,6.39,5.71,5.73,0,*73
1532577936.19,51524,18.88,74022.0,6.39,5.71,5.71,0,*76
1532577937.39,51525,18.88,74024.3,6.39,5.71,5.67,0,*70
1532577938.6,51526,18.94,74030.8,6.39,5.71,5.71,0,*74
1532577939.8,51527,18.94,74030.8,6.39,5.71,5.71,0,*75
1532577941.05,51528,18.94,74032.5,6.39,5.73,5.73,0,*7A
1532577942.28,51529,18.94,74032.3,6.39,5.73,5.71,0,*79
1532577943.49,51530,18.88,74032.8,6.39,5.71,5.71,0,*73
1532577944.72,51531,18.88,74034.3,6.39,5.73,5.71,0,*70
1532577945.93,51532,18.94,74034.3,6.39,5.71,5.71,0,*71
1532577947.11,51533,18.94,74032.0,6.37,5.67,5.67,0,*7E
1532577948.29,51534,18.94,74032.3,6.37,5.63,5.67,0,*7D
1532577949.46,51535,18.94,74032.8,6.37,5.71,5.71,0,*78
1532577950.71,51536,18.94,74030.8,6.39,5.73,5.73,0,*75
1532577951.94,51537,18.88,74030.0,6.37,5.81,5.81,0,*7A
1532577953.16,51538,18.88,74024.8,6.37,5.81,5.81,0,*75
1532577954.36,51539,18.94,74034.0,6.37,5.77,5.71,0,*72
1532577955.56,51540,18.88,74028.0,6.39,5.71,5.71,0,*74
1532577956.74,51541,18.94,74030.5,6.37,5.63,5.71,0,*78
1532577957.99,51542,18.88,74030.0,6.39,5.73,5.85,0,*7F
1532577959.22,51543,18.94,74032.0,6.39,5.71,5.81,0,*78
1532577960.43,51544,18.88,74026.3,6.39,5.71,5.71,0,*70
1532577961.61,51545,18.94,74032.0,6.37,5.67,5.67,0,*7F
1532577962.81,51546,18.88,74030.0,6.39,5.71,5.71,0,*72
1532577964.04,51547,18.94,74032.5,6.39,5.73,5.71,0,*71
1532577965.25,51548,18.88,74032.5,6.39,5.71,5.71,0,*7C
1532577966.5,51549,18.88,74030.8,6.39,5.81,5.73,0,*70
1532577967.75,51550,18.94,74032.3,6.39,5.81,5.85,0,*71
1532577969.01,51551,18.88,74028.5,6.39,5.85,5.93,0,*73
1532577970.24,51552,18.88,74028.3,6.37,5.93,5.89,0,*72
1532577971.49,51553,18.94,74030.8,6.39,5.93,5.93,0,*76
1532577972.75,51554,18.94,74030.0,6.39,5.81,5.85,0,*75
1532577973.97,51555,18.88,74030.8,6.37,5.81,5.85,0,*7A
1532577975.22,51556,18.88,74034.0,6.39,5.85,5.85,0,*73
1532577976.48,51557,18.88,74028.8,6.39,5.81,5.85,0,*76
1532577977.73,51558,18.94,74030.5,6.39,5.85,5.93,0,*7A
1532577978.95,51559,18.94,74028.3,6.37,5.77,5.81,0,*7B
1532577980.2,51560,18.94,74022.3,6.39,5.85,5.81,0,*72
1532577981.46,51561,18.94,74024.0,6.39,5.93,5.93,0,*77
1532577982.72,51562,18.94,74026.8,6.39,5.93,5.81,0,*77
1532577983.97,51563,18.94,74030.5,6.39,5.85,5.85,0,*75
1532577985.2,51564,18.94,74028.0,6.41,5.85,5.85,0,*7D
1532577986.45,51565,18.94,74030.0,6.39,5.85,5.85,0,*73
1532577987.67,51566,18.94,74026.5,6.37,5.77,5.77,0,*7E
1532577988.89,51567,18.88,74024.0,6.41,5.73,5.77,0,*7A
1532577990.11,51568,18.94,74024.0,6.37,5.73,5.73,0,*70
1532577991.31,51569,18.88,74026.8,6.37,5.77,5.71,0,*77
1532577992.56,51570,18.94,74028.0,6.39,5.85,5.85,0,*77
1532577993.79,51571,18.88,74028.3,6.39,5.95,5.93,0,*70
1532577995.01,51572,18.94,74028.3,6.37,5.81,5.77,0,*72
1532577996.24,51573,18.88,74026.3,6.39,5.71,5.73,0,*76
1532577997.49,51574,18.94,74028.8,6.39,5.81,5.81,0,*73
1532577998.72,51575,18.88,74028.3,6.41,5.85,5.85,0,*7D
1532577999.97,51576,18.94,74032.5,6.39,5.85,5.85,0,*71
1532578001.2,51577,18.94,74040.5,6.37,5.89,5.93,0,*75
1532578002.39,51578,18.94,74034.5,6.41,5.99,5.99,0,*70
1532578003.64,51579,18.94,74026.0,6.39,5.81,5.85,0,*7A
1532578004.87,51580,18.88,74022.8,6.41,5.89,5.89,0,*77
1532578006.1,51581,18.88,74024.0,6.41,5.89,5.89,0,*76
1532578007.36,51582,18.88,74024.3,6.39,5.81,5.81,0,*7A
1532578008.58,51583,18.94,74024.8,6.37,5.81,5.81,0,*75
1532578009.83,51584,18.88,74026.3,6.39,5.85,5.93,0,*7B
1532578011.09,51585,18.94,74028.3,6.39,5.81,5.81,0,*7D
1532578012.35,51586,18.88,74028.0,6.39,5.89,5.85,0,*72
1532578013.58,51587,18.88,74032.5,6.39,5.85,5.95,0,*7E
1532578014.76,51588,18.94,74034.8,6.41,5.95,5.95,0,*7F
1532578016.01,51589,18.94,74038.0,6.39,5.81,5.81,0,*71
1532578017.26,51590,18.88,74032.0,6.39,5.81,5.73,0,*74
1532578018.52,51591,18.88,74034.5,6.39,5.81,5.85,0,*7C
1532578019.72,51592,18.88,74028.3,6.39,5.95,5.95,0,*7B
1532578020.98,51593,18.94,74034.0,6.39,5.85,5.93,0,*7D
1532578022.21,51594,18.94,74034.8,6.41,5.89,5.89,0,*72
1532578023.44,51595,18.94,74030.8,6.41,5.89,5.85,0,*7F
1532578024.62,51596,18.88,74030.5,6.41,5.99,5.95,0,*7C
1532578025.81,51597,18.94,74030.0,6.41,5.95,5.99,0,*7D
1532578027.02,51598,18.94,74028.0,6.39,5.95,5.95,0,*71
1532578028.2,51599,18.94,74028.3,6.41,5.99,5.99,0,*7F
1532578029.43,51600,18.94,74030.8,6.41,5.89,5.89,0,*7C
1532578030.69,51601,18.94,74030.0,6.39,5.85,5.85,0,*72
1532578031.94,51602,18.94,74028.5,6.39,5.85,5.93,0,*76
1532578033.17,51603,18.88,74028.8,6.39,5.93,5.95,0,*76
1532578034.36,51604,18.94,74034.3,6.41,5.99,5.99,0,*78
1532578035.54,51605,18.94,74034.5,6.41,6.07,5.99,0,*7D
1532578036.74,51606,18.88,74034.5,6.41,5.95,5.89,0,*77
1532578037.93,51607,18.94,74032.8,6.41,5.99,5.95,0,*77
1532578039.11,51608,18.88,74030.3,6.41,5.99,6.11,0,*77
1532578040.31,51609,18.88,74034.3,6.43,6.07,6.07,0,*77
1532578041.48,51610,18.88,74034.3,6.41,6.07,6.07,0,*7D
1532578042.65,51611,18.88,74038.5,6.41,6.07,6.07,0,*7C
1532578043.89,51612,18.94,74036.8,6.43,5.89,5.95,0,*70
1532578045.11,51613,18.94,74032.5,6.41,5.85,5.89,0,*72
1532578046.33,51614,18.94,74026.3,6.41,5.77,5.77,0,*79
1532578047.54,51615,18.88,74024.0,6.41,5.89,5.95,0,*75
1532578048.74,51616,18.88,74026.5,6.41,5.95,5.89,0,*76
1532578049.97,51617,18.88,74030.3,6.41,5.89,5.89,0,*7A
1532578051.18,51618,18.88,74030.5,6.41,5.89,5.95,0,*78
1532578052.39,51619,18.88,74028.5,6.43,5.99,5.95,0,*7A
1532578053.57,51620,18.88,74030.3,6.41,5.99,5.95,0,*72
1532578054.79,51621,18.88,74030.8,6.41,5.85,5.89,0,*73
1532578056.05,51622,18.94,74030.0,6.43,5.85,5.85,0,*7E
1532578057.28,51623,18.88,74030.8,6.41,5.89,5.85,0,*71
1532578058.51,51624,18.94,74030.3,6.41,5.89,5.89,0,*7A
1532578059.74,51625,18.88,74032.3,6.41,5.89,5.89,0,*7B
1532578060.95,51626,18.88,74026.8,6.41,5.89,5.95,0,*75
1532578062.13,51627,18.94,74026.8,6.41,5.95,5.95,0,*79
1532578063.38,51628,18.88,74026.3,6.43,5.85,5.85,0,*74
1532578064.61,51629,18.88,74024.5,6.41,5.85,5.85,0,*77
1532578065.83,51630,18.88,74022.0,6.41,5.85,5.85,0,*7F
1532578067.06,51631,18.88,74024.8,6.41,5.77,5.89,0,*7F
1532578068.29,51632,18.88,74024.5,6.41,5.89,5.89,0,*7D
1532578069.47,51633,18.94,74030.0,6.41,5.99,5.95,0,*70
1532578070.69,51634,18.88,74024.0,6.41,5.77,5.85,0,*76
1532578071.92,51635,18.94,74026.3,6.41,5.89,5.85,0,*76
1532578073.13,51636,18.94,74026.3,6.43,5.95,5.95,0,*7B
1532578074.31,51637,18.88,74026.5,6.45,5.99,5.99,0,*7C
1532578075.53,51638,18.88,74024.3,6.41,5.85,5.89,0,*7B
1532578076.79,51639,18.88,74026.8,6.43,5.89,5.89,0,*74
1532578078.0,51640,18.88,74030.3,6.43,5.99,5.99,0,*7A
1532578079.2,51641,18.94,74028.3,6.43,6.07,6.07,0,*7B
1532578080.39,51642,18.94,74028.5,6.43,6.07,6.07,0,*78
1532578081.57,51643,18.88,74026.8,6.41,6.07,6.07,0,*7B
1532578082.74,51644,18.94,74030.3,6.41,6.07,6.07,0,*7C
1532578083.95,51645,18.88,74028.0,6.43,5.95,5.99,0,*73
1532578085.13,51646,18.88,74028.8,6.41,6.07,5.99,0,*7A
1532578086.34,51647,18.88,74026.3,6.43,5.99,5.99,0,*7D
1532578087.55,51648,18.94,74032.5,6.43,5.99,5.99,0,*72
1532578088.75,51649,18.88,74028.8,6.43,6.07,6.11,0,*74
1532578089.95,51650,18.94,74030.3,6.43,6.07,6.07,0,*7B
1532578091.16,51651,18.88,74024.3,6.43,6.11,6.11,0,*7A
1532578092.36,51652,18.88,74030.3,6.43,6.11,6.11,0,*79
1532578093.61,51653,18.94,74028.5,6.43,6.17,6.17,0,*78
1532578094.81,51654,18.94,74030.0,6.43,6.07,6.11,0,*78
1532578096.02,51655,18.88,74026.8,6.43,6.07,6.11,0,*79
1532578097.24,51656,18.94,74026.0,6.43,6.11,6.17,0,*7B
1532578098.42,51657,18.88,74026.5,6.45,6.11,6.11,0,*7A
1532578099.64,51658,18.88,74020.5,6.45,6.13,6.13,0,*75
1532578100.85,51659,18.94,74026.3,6.47,6.21,6.25,0,*72
1532578102.06,51660,18.94,74024.5,6.45,6.13,6.21,0,*7F
1532578103.26,51661,18.88,74022.3,6.45,6.13,6.25,0,*7A
1532578104.46,51662,18.88,74026.3,6.45,6.11,6.13,0,*7E
1532578105.63,51663,18.88,74024.8,6.45,6.11,6.11,0,*7D
1532578106.83,51664,18.94,74030.0,6.45,6.11,6.13,0,*78
1532578108.03,51665,18.94,74028.8,6.45,6.11,6.13,0,*79
1532578109.23,51666,18.88,74026.8,6.45,6.11,6.13,0,*7A
1532578110.45,51667,18.88,74022.5,6.47,6.21,6.13,0,*7A
1532578111.66,51668,18.94,74022.8,6.47,6.21,6.21,0,*74
1532578112.85,51669,18.88,74020.8,6.45,6.21,6.33,0,*74
1532578114.03,51670,18.88,74022.8,6.45,6.21,6.25,0,*7B
1532578115.21,51671,18.88,74026.5,6.45,6.25,6.25,0,*7E
1532578116.42,51672,18.94,74028.3,6.47,6.25,6.25,0,*7F
1532578117.63,51673,18.88,74020.3,6.47,6.25,6.25,0,*7E
1532578118.84,51674,18.88,74024.8,6.47,6.21,6.25,0,*7D
1532578120.07,51675,18.88,74024.3,6.49,6.17,6.17,0,*76
1532578121.3,51676,18.94,74024.5,6.49,6.13,6.17,0,*71
1532578122.52,51677,18.88,74020.5,6.49,6.17,6.17,0,*74
1532578123.75,51678,18.88,74018.5,6.47,6.11,6.13,0,*77
1532578124.98,51679,18.88,74022.0,6.49,6.13,6.13,0,*7A
1532578126.2,51680,18.88,74022.3,6.49,6.17,6.17,0,*7C
1532578127.43,51681,18.88,74022.0,6.47,6.13,6.21,0,*72
1532578128.66,51682,18.94,74026.8,6.47,6.13,6.21,0,*71
1532578129.89,51683,18.88,74020.5,6.49,6.17,6.17,0,*7F
1532578131.12,51684,18.94,74026.3,6.49,6.13,6.13,0,*78
1532578132.31,51685,18.88,74018.5,6.49,6.03,6.03,0,*79